Regional Weather Roundup
Issued by NWS

Home | Current Version | Previous Version | Graphics & Text | Print | Product List | Glossary On
Versions: 1 2 3 4 5 6 7 8 9 10 11 12 13 14 15 16 17 18 19 20 21 22 23 24 25 26 27 28 29 30 31 32 33 34 35 36 37 38 39 40 41 42 43 44 45 46 47 48
000
ASUS45 KBOI 040110
RWRID
WEATHER ROUNDUP FOR IDAHO
NATIONAL WEATHER SERVICE BOISE ID
700 PM MDT SUN MAY 03 2015

NOTE: "FAIR" INDICATES FEW OR NO CLOUDS BELOW 12000 FEET
WITH NO SIGNIFICANT WEATHER AND/OR OBSTRUCTIONS TO VISIBILITY

IDZ012-014-040200-
SOUTHWEST IDAHO


CITY           SKY/WX    TMP DP  RH WIND       PRES   REMARKS
BOISE          SUNNY     78  27  15 N15       29.78F
CALDWELL       SUNNY     77  34  20 N7        29.79F
MOUNTAIN HOME  SUNNY     78  29  16 NW10      29.78S
$$

IDZ016-017-040200-
SOUTHCENTRAL IDAHO


CITY           SKY/WX    TMP DP  RH WIND       PRES   REMARKS
BURLEY         MOSUNNY   71  37  28 S9        29.82F
JEROME         MOSUNNY   75  29  18 SW8       29.83S
TWIN FALLS     SUNNY     76  31  19 NW8       29.83S
$$

IDZ019>023-040200-
SOUTHEAST IDAHO


CITY           SKY/WX    TMP DP  RH WIND       PRES   REMARKS
IDAHO FALLS    LGT RAIN  65  41  41 NE14      29.90R
POCATELLO      MOSUNNY   69  37  30 SE9       29.86F
REXBURG        PTSUNNY   65  35  33 NE6       29.91S
$$

IDZ006-010-011-018-031-032-040200-
CENTRAL IDAHO MOUNTAINS


CITY           SKY/WX    TMP DP  RH WIND       PRES   REMARKS
MCCALL         MOSUNNY   64  19  17 W6        29.88S
HAILEY         PTSUNNY   68  34  28 N7        29.89S
STANLEY          N/A     63  24  22 VRB5      29.94F
SALMON         PTSUNNY   70  27  19 E9        29.83S
CHALLIS        PTSUNNY   69  33  26 CALM      29.86F
$$

IDZ002-004-006-007-026-040200-
NORTHERN IDAHO


CITY           SKY/WX    TMP DP  RH WIND       PRES   REMARKS
LEWISTON       SUNNY     75  23  14 W3        29.83F
LOWELL           N/A     68  34  28 CALM      29.81S
COEUR D`ALENE  SUNNY     66  23  19 CALM      29.89F
MULLAN PASS    SUNNY     54  19  25 VRB3      29.97F
$$



USA.gov is the U.S. government's official web portal to all federal, state and local government web resources and services.